Voltar ao catálogo

SCOUT B DEB

LostUNKNOWN
NORAD 29171·DEBRIS·🇺🇸 United States

Lançado Aug 10, 1965 de Wallops Flight Facility

Loading…

Próximas Passagens (próximas 24 horas)

TLE

ObsoletoSource: Space-Track

Época: Nov 12, 2024, 04:50 UTC

1 29171U 65063V   24317.20139343  .00000780  00000-0  50887-2 0  9997
2 29171  69.1958 121.7373 0775186 168.1990  10.0787 11.87588469   473

Acompanhe SCOUT B DEB em tempo real com AllMySat

Download on the App Store